Time,TemperatureF,DewpointF,PressureIn,WindDirection,WindDirectionDegrees,WindSpeedMPH,WindSpeedGustMPH,Humidity,HourlyPrecipIn,Conditions,Clouds,dailyrainin,SoftwareType,DateUTC
2013-01-24 00:03:00,-1.0,-10.0,30.14,East,85,0.0,0.0,64,0.00,,,0.00,,2013-01-24 05:03:00,
2013-01-24 00:12:00,-1.0,-10.0,30.14,East,85,0.0,0.0,64,0.00,,,0.00,,2013-01-24 05:12:00,
2013-01-24 00:23:00,-1.0,-11.0,30.14,WNW,301,1.0,4.0,61,0.00,,,0.00,,2013-01-24 05:23:00,
2013-01-24 00:33:00,0.0,-11.0,30.13,West,276,1.0,2.0,60,0.00,,,0.00,,2013-01-24 05:33:00,
2013-01-24 00:43:00,0.0,-11.0,30.13,West,276,1.0,2.0,60,0.00,,,0.00,,2013-01-24 05:43:00,
2013-01-24 00:53:00,0.0,-11.0,30.13,WNW,300,0.0,2.0,58,0.00,,,0.00,,2013-01-24 05:53:00,
2013-01-24 01:03:00,0.0,-11.0,30.13,WNW,295,0.0,2.0,60,0.00,,,0.00,,2013-01-24 06:03:00,
2013-01-24 01:12:00,0.0,-11.0,30.13,WNW,295,0.0,2.0,60,0.00,,,0.00,,2013-01-24 06:12:00,
2013-01-24 01:22:00,-1.0,-11.0,30.13,WNW,290,0.0,3.0,62,0.00,,,0.00,,2013-01-24 06:22:00,
2013-01-24 01:32:00,0.0,-10.0,30.13,WNW,300,1.0,2.0,61,0.00,,,0.00,,2013-01-24 06:32:00,
2013-01-24 01:42:00,0.0,-10.0,30.13,WNW,300,1.0,2.0,61,0.00,,,0.00,,2013-01-24 06:42:00,
2013-01-24 01:53:00,-1.0,-11.0,30.13,NW,304,0.0,2.0,62,0.00,,,0.00,,2013-01-24 06:53:00,
2013-01-24 02:03:00,-1.0,-11.0,30.14,WNW,300,1.0,1.0,63,0.00,,,0.00,,2013-01-24 07:03:00,
2013-01-24 02:12:00,-1.0,-11.0,30.14,WNW,300,1.0,1.0,63,0.00,,,0.00,,2013-01-24 07:12:00,
2013-01-24 02:23:00,-2.0,-11.0,30.14,WNW,295,1.0,2.0,65,0.00,,,0.00,,2013-01-24 07:23:00,
2013-01-24 02:33:00,-1.0,-10.0,30.14,WNW,292,1.0,2.0,64,0.00,,,0.00,,2013-01-24 07:33:00,
2013-01-24 02:43:00,-1.0,-10.0,30.14,WNW,292,1.0,2.0,64,0.00,,,0.00,,2013-01-24 07:43:00,
2013-01-24 02:52:00,-2.0,-11.0,30.14,West,281,1.0,2.0,65,0.00,,,0.00,,2013-01-24 07:52:00,
2013-01-24 03:03:00,-2.0,-11.0,30.13,WNW,301,1.0,2.0,66,0.00,,,0.00,,2013-01-24 08:03:00,
2013-01-24 03:12:00,-2.0,-11.0,30.13,WNW,301,1.0,2.0,66,0.00,,,0.00,,2013-01-24 08:12:00,
2013-01-24 03:23:00,-1.0,-11.0,30.12,WNW,295,2.0,4.0,62,0.00,,,0.00,,2013-01-24 08:23:00,
2013-01-24 03:33:00,-1.0,-11.0,30.12,NW,316,1.0,2.0,61,0.00,,,0.00,,2013-01-24 08:33:00,
2013-01-24 03:43:00,-1.0,-11.0,30.12,NW,316,1.0,2.0,61,0.00,,,0.00,,2013-01-24 08:43:00,
2013-01-24 03:53:00,-2.0,-12.0,30.12,WNW,287,1.0,2.0,61,0.00,,,0.00,,2013-01-24 08:53:00,
2013-01-24 04:03:00,-2.0,-12.0,30.12,WNW,300,0.0,2.0,61,0.00,,,0.00,,2013-01-24 09:03:00,
2013-01-24 04:13:00,-2.0,-12.0,30.12,WNW,300,0.0,2.0,61,0.00,,,0.00,,2013-01-24 09:13:00,
2013-01-24 04:23:00,-2.0,-11.0,30.12,NW,304,0.0,2.0,63,0.00,,,0.00,,2013-01-24 09:23:00,
2013-01-24 04:33:00,-3.0,-12.0,30.12,WNW,303,1.0,1.0,65,0.00,,,0.00,,2013-01-24 09:33:00,
2013-01-24 04:43:00,-3.0,-12.0,30.12,WNW,303,1.0,1.0,65,0.00,,,0.00,,2013-01-24 09:43:00,
2013-01-24 04:53:00,-4.0,-12.0,30.12,NW,304,0.0,0.0,67,0.00,,,0.00,,2013-01-24 09:53:00,
2013-01-24 05:03:00,-4.0,-12.0,30.12,NW,304,0.0,1.0,69,0.00,,,0.00,,2013-01-24 10:03:00,
2013-01-24 05:12:00,-4.0,-12.0,30.12,NW,304,0.0,1.0,69,0.00,,,0.00,,2013-01-24 10:12:00,
2013-01-24 05:23:00,-5.0,-12.0,30.12,NW,304,0.0,1.0,72,0.00,,,0.00,,2013-01-24 10:23:00,
2013-01-24 05:33:00,-4.0,-12.0,30.12,WNW,303,0.0,1.0,69,0.00,,,0.00,,2013-01-24 10:33:00,
2013-01-24 05:43:00,-4.0,-12.0,30.12,WNW,303,0.0,1.0,69,0.00,,,0.00,,2013-01-24 10:43:00,
2013-01-24 05:53:00,-4.0,-11.0,30.12,WNW,295,1.0,2.0,71,0.00,,,0.00,,2013-01-24 10:53:00,
2013-01-24 06:03:00,-5.0,-12.0,30.12,WNW,295,1.0,1.0,72,0.00,,,0.00,,2013-01-24 11:03:00,
2013-01-24 06:12:00,-5.0,-12.0,30.12,WNW,295,1.0,1.0,72,0.00,,,0.00,,2013-01-24 11:12:00,
2013-01-24 06:23:00,-4.0,-11.0,30.13,WNW,295,1.0,2.0,72,0.00,,,0.00,,2013-01-24 11:23:00,
2013-01-24 06:33:00,-4.0,-11.0,30.13,WNW,295,1.0,2.0,72,0.00,,,0.00,,2013-01-24 11:33:00,
2013-01-24 06:43:00,-4.0,-11.0,30.13,WNW,295,1.0,2.0,72,0.00,,,0.00,,2013-01-24 11:43:00,
2013-01-24 06:53:00,-4.0,-12.0,30.14,WNW,294,2.0,4.0,68,0.00,,,0.00,,2013-01-24 11:53:00,
2013-01-24 07:03:00,-3.0,-11.0,30.14,West,259,1.0,3.0,66,0.00,,,0.00,,2013-01-24 12:03:00,
2013-01-24 07:12:00,-3.0,-11.0,30.14,West,259,1.0,3.0,66,0.00,,,0.00,,2013-01-24 12:12:00,
2013-01-24 07:23:00,-3.0,-11.0,30.14,West,273,1.0,1.0,67,0.00,,,0.00,,2013-01-24 12:23:00,
2013-01-24 07:33:00,-4.0,-12.0,30.14,WNW,298,1.0,2.0,68,0.00,,,0.00,,2013-01-24 12:33:00,
2013-01-24 07:43:00,-4.0,-12.0,30.14,WNW,298,1.0,2.0,68,0.00,,,0.00,,2013-01-24 12:43:00,
2013-01-24 07:53:00,-4.0,-12.0,30.14,WNW,298,2.0,3.0,68,0.00,,,0.00,,2013-01-24 12:53:00,
2013-01-24 08:03:00,-3.0,-11.0,30.14,WNW,285,2.0,2.0,68,0.00,,,0.00,,2013-01-24 13:03:00,
2013-01-24 08:13:00,-3.0,-11.0,30.14,WNW,285,2.0,2.0,68,0.00,,,0.00,,2013-01-24 13:13:00,
2013-01-24 08:23:00,-2.0,-11.0,30.14,WNW,291,1.0,3.0,66,0.00,,,0.00,,2013-01-24 13:23:00,
2013-01-24 08:33:00,-2.0,-11.0,30.14,NNW,342,1.0,3.0,64,0.00,,,0.00,,2013-01-24 13:33:00,
2013-01-24 08:43:00,-2.0,-11.0,30.14,NNW,342,1.0,3.0,64,0.00,,,0.00,,2013-01-24 13:43:00,
2013-01-24 08:53:00,-1.0,-11.0,30.14,WNW,289,1.0,4.0,61,0.00,,,0.00,,2013-01-24 13:53:00,
2013-01-24 09:03:00,0.0,-11.0,30.14,North,349,2.0,5.0,60,0.00,,,0.00,,2013-01-24 14:03:00,
2013-01-24 09:12:00,0.0,-11.0,30.14,North,349,2.0,5.0,60,0.00,,,0.00,,2013-01-24 14:12:00,
2013-01-24 09:23:00,1.0,-11.0,30.14,West,276,2.0,5.0,56,0.00,,,0.00,,2013-01-24 14:23:00,
2013-01-24 09:33:00,2.0,-11.0,30.14,NNW,330,1.0,4.0,54,0.00,,,0.00,,2013-01-24 14:33:00,
2013-01-24 09:43:00,2.0,-11.0,30.14,NNW,330,1.0,4.0,54,0.00,,,0.00,,2013-01-24 14:43:00,
2013-01-24 09:54:00,4.0,-10.0,30.14,NW,318,3.0,6.0,50,0.00,,,0.00,,2013-01-24 14:54:00,
2013-01-24 10:04:00,5.0,-11.0,30.14,WNW,297,4.0,11.0,47,0.00,,,0.00,,2013-01-24 15:04:00,
2013-01-24 10:13:00,5.0,-11.0,30.14,WNW,297,4.0,11.0,47,0.00,,,0.00,,2013-01-24 15:13:00,
2013-01-24 10:23:00,5.0,-11.0,30.14,WNW,289,4.0,8.0,46,0.00,,,0.00,,2013-01-24 15:23:00,
2013-01-24 10:33:00,5.0,-11.0,30.14,WNW,289,4.0,8.0,46,0.00,,,0.00,,2013-01-24 15:33:00,
2013-01-24 10:43:00,7.0,-10.0,30.14,NW,326,3.0,8.0,45,0.00,,,0.00,,2013-01-24 15:43:00,
2013-01-24 10:53:00,9.0,-9.0,30.14,West,281,2.0,8.0,43,0.00,,,0.00,,2013-01-24 15:53:00,
2013-01-24 11:04:00,9.0,-10.0,30.14,West,269,2.0,11.0,41,0.00,,,0.00,,2013-01-24 16:04:00,
2013-01-24 11:12:00,9.0,-10.0,30.14,West,269,2.0,11.0,41,0.00,,,0.00,,2013-01-24 16:12:00,
2013-01-24 11:23:00,10.0,-9.0,30.13,WNW,287,5.0,12.0,41,0.00,,,0.00,,2013-01-24 16:23:00,
2013-01-24 11:33:00,10.0,-9.0,30.13,WNW,287,5.0,12.0,41,0.00,,,0.00,,2013-01-24 16:33:00,
2013-01-24 11:43:00,10.0,-9.0,30.13,WNW,287,5.0,12.0,41,0.00,,,0.00,,2013-01-24 16:43:00,
2013-01-24 12:03:00,11.0,-9.0,30.12,WNW,284,4.0,12.0,39,0.00,,,0.00,,2013-01-24 17:03:00,
2013-01-24 12:12:00,11.0,-9.0,30.12,WNW,284,4.0,12.0,39,0.00,,,0.00,,2013-01-24 17:12:00,
2013-01-24 12:22:00,13.0,-7.0,30.11,WNW,288,4.0,12.0,39,0.00,,,0.00,,2013-01-24 17:22:00,
2013-01-24 12:32:00,13.0,-9.0,30.11,WNW,302,5.0,17.0,36,0.00,,,0.00,,2013-01-24 17:32:00,
2013-01-24 12:42:00,13.0,-9.0,30.11,WNW,302,5.0,17.0,36,0.00,,,0.00,,2013-01-24 17:42:00,
2013-01-24 12:52:00,14.0,-7.0,30.10,West,274,4.0,8.0,37,0.00,,,0.00,,2013-01-24 17:52:00,
2013-01-24 13:03:00,14.0,-8.0,30.10,WNW,285,5.0,12.0,36,0.00,,,0.00,,2013-01-24 18:03:00,
2013-01-24 13:12:00,15.0,-7.0,30.09,NE,42,4.0,10.0,36,0.00,,,0.00,,2013-01-24 18:12:00,
2013-01-24 13:23:00,15.0,-7.0,30.09,NE,42,4.0,10.0,36,0.00,,,0.00,,2013-01-24 18:23:00,
2013-01-24 13:33:00,15.0,-8.0,30.10,NW,304,6.0,16.0,34,0.00,,,0.00,,2013-01-24 18:33:00,
2013-01-24 13:42:00,15.0,-8.0,30.10,NW,304,6.0,16.0,34,0.00,,,0.00,,2013-01-24 18:42:00,
2013-01-24 13:53:00,15.0,-8.0,30.09,West,280,5.0,12.0,34,0.00,,,0.00,,2013-01-24 18:53:00,
2013-01-24 14:02:00,15.0,-8.0,30.08,WNW,299,3.0,8.0,35,0.00,,,0.00,,2013-01-24 19:02:00,
2013-01-24 14:12:00,15.0,-8.0,30.08,WNW,299,3.0,8.0,35,0.00,,,0.00,,2013-01-24 19:12:00,
2013-01-24 14:22:00,16.0,-7.0,30.08,West,260,4.0,12.0,34,0.00,,,0.00,,2013-01-24 19:22:00,
2013-01-24 14:33:00,16.0,-7.0,30.08,WNW,292,3.0,16.0,34,0.00,,,0.00,,2013-01-24 19:33:00,
2013-01-24 14:42:00,16.0,-7.0,30.08,WNW,292,3.0,16.0,34,0.00,,,0.00,,2013-01-24 19:42:00,
2013-01-24 14:53:00,16.0,-7.0,30.08,West,280,4.0,12.0,34,0.00,,,0.00,,2013-01-24 19:53:00,
2013-01-24 15:02:00,16.0,-7.0,30.08,WNW,299,2.0,9.0,35,0.00,,,0.00,,2013-01-24 20:02:00,
2013-01-24 15:12:00,16.0,-7.0,30.08,WNW,299,2.0,9.0,35,0.00,,,0.00,,2013-01-24 20:12:00,
2013-01-24 15:22:00,17.0,-8.0,30.08,NNW,329,4.0,10.0,32,0.00,,,0.00,,2013-01-24 20:22:00,
2013-01-24 15:32:00,17.0,-8.0,30.08,WSW,243,5.0,10.0,32,0.00,,,0.00,,2013-01-24 20:32:00,
2013-01-24 15:42:00,17.0,-8.0,30.08,WSW,243,5.0,10.0,32,0.00,,,0.00,,2013-01-24 20:42:00,
2013-01-24 15:52:00,16.0,-10.0,30.09,NW,321,6.0,15.0,30,0.00,,,0.00,,2013-01-24 20:52:00,
2013-01-24 16:03:00,16.0,-9.0,30.09,NNW,347,5.0,12.0,31,0.00,,,0.00,,2013-01-24 21:03:00,
2013-01-24 16:12:00,16.0,-9.0,30.09,NNW,347,5.0,12.0,31,0.00,,,0.00,,2013-01-24 21:12:00,
2013-01-24 16:23:00,16.0,-9.0,30.09,NW,309,7.0,14.0,32,0.00,,,0.00,,2013-01-24 21:23:00,
2013-01-24 16:33:00,15.0,-9.0,30.09,WNW,291,7.0,20.0,32,0.00,,,0.00,,2013-01-24 21:33:00,
2013-01-24 16:43:00,15.0,-9.0,30.09,WNW,291,7.0,20.0,32,0.00,,,0.00,,2013-01-24 21:43:00,
2013-01-24 16:53:00,14.0,-9.0,30.10,WNW,287,4.0,11.0,34,0.00,,,0.00,,2013-01-24 21:53:00,
2013-01-24 17:03:00,14.0,-10.0,30.10,WNW,285,5.0,13.0,33,0.00,,,0.00,,2013-01-24 22:03:00,
2013-01-24 17:12:00,14.0,-10.0,30.10,WNW,285,5.0,13.0,33,0.00,,,0.00,,2013-01-24 22:12:00,
2013-01-24 17:22:00,14.0,-10.0,30.11,WNW,290,5.0,13.0,33,0.00,,,0.00,,2013-01-24 22:22:00,
2013-01-24 17:33:00,14.0,-9.0,30.11,NNW,340,4.0,13.0,34,0.00,,,0.00,,2013-01-24 22:33:00,
2013-01-24 17:42:00,14.0,-9.0,30.11,NNW,340,4.0,13.0,34,0.00,,,0.00,,2013-01-24 22:42:00,
2013-01-24 17:53:00,13.0,-9.0,30.12,NW,325,3.0,12.0,35,0.00,,,0.00,,2013-01-24 22:53:00,
2013-01-24 18:03:00,13.0,-10.0,30.12,WNW,296,4.0,9.0,34,0.00,,,0.00,,2013-01-24 23:03:00,
2013-01-24 18:12:00,13.0,-10.0,30.12,WNW,296,4.0,9.0,34,0.00,,,0.00,,2013-01-24 23:12:00,
2013-01-24 18:22:00,13.0,-9.0,30.13,NW,304,1.0,7.0,35,0.00,,,0.00,,2013-01-24 23:22:00,
2013-01-24 18:32:00,13.0,-9.0,30.13,WNW,297,3.0,7.0,36,0.00,,,0.00,,2013-01-24 23:32:00,
2013-01-24 18:42:00,13.0,-9.0,30.13,WNW,297,3.0,7.0,36,0.00,,,0.00,,2013-01-24 23:42:00,
2013-01-24 18:52:00,13.0,-10.0,30.14,NW,323,5.0,11.0,34,0.00,,,0.00,,2013-01-24 23:52:00,
2013-01-24 19:02:00,13.0,-10.0,30.14,SW,221,3.0,12.0,34,0.00,,,0.00,,2013-01-25 00:02:00,
2013-01-24 19:12:00,13.0,-10.0,30.14,SW,221,3.0,12.0,34,0.00,,,0.00,,2013-01-25 00:12:00,
2013-01-24 19:22:00,13.0,-10.0,30.15,NW,322,5.0,14.0,34,0.00,,,0.00,,2013-01-25 00:22:00,
2013-01-24 19:32:00,13.0,-9.0,30.16,WNW,296,4.0,10.0,35,0.00,,,0.00,,2013-01-25 00:32:00,
2013-01-24 19:42:00,13.0,-9.0,30.16,WNW,296,4.0,10.0,35,0.00,,,0.00,,2013-01-25 00:42:00,
2013-01-24 19:53:00,12.0,-10.0,30.16,North,6,3.0,8.0,36,0.00,,,0.00,,2013-01-25 00:53:00,
2013-01-24 20:02:00,12.0,-10.0,30.16,WSW,255,3.0,11.0,36,0.00,,,0.00,,2013-01-25 01:02:00,
2013-01-24 20:12:00,12.0,-10.0,30.16,WSW,255,3.0,11.0,36,0.00,,,0.00,,2013-01-25 01:12:00,
2013-01-24 20:22:00,12.0,-10.0,30.16,NW,307,3.0,8.0,36,0.00,,,0.00,,2013-01-25 01:22:00,
2013-01-24 20:32:00,12.0,-10.0,30.16,NE,53,4.0,9.0,36,0.00,,,0.00,,2013-01-25 01:32:00,
2013-01-24 20:42:00,12.0,-10.0,30.16,NE,53,4.0,9.0,36,0.00,,,0.00,,2013-01-25 01:42:00,
2013-01-24 20:52:00,12.0,-10.0,30.16,WNW,283,4.0,16.0,36,0.00,,,0.00,,2013-01-25 01:52:00,
2013-01-24 21:02:00,12.0,-10.0,30.17,WNW,290,3.0,12.0,35,0.00,,,0.00,,2013-01-25 02:02:00,
2013-01-24 21:12:00,12.0,-10.0,30.17,WNW,290,3.0,12.0,35,0.00,,,0.00,,2013-01-25 02:12:00,
2013-01-24 21:22:00,11.0,-11.0,30.17,NW,306,4.0,10.0,36,0.00,,,0.00,,2013-01-25 02:22:00,
2013-01-24 21:32:00,11.0,-11.0,30.18,NW,308,3.0,9.0,36,0.00,,,0.00,,2013-01-25 02:32:00,
2013-01-24 21:42:00,11.0,-11.0,30.18,NW,308,3.0,9.0,36,0.00,,,0.00,,2013-01-25 02:42:00,
2013-01-24 21:53:00,11.0,-11.0,30.19,NW,306,2.0,12.0,36,0.00,,,0.00,,2013-01-25 02:53:00,
2013-01-24 22:02:00,11.0,-11.0,30.19,NW,326,3.0,8.0,36,0.00,,,0.00,,2013-01-25 03:02:00,
2013-01-24 22:12:00,10.0,-11.0,30.20,NNW,328,3.0,12.0,37,0.00,,,0.00,,2013-01-25 03:12:00,
2013-01-24 22:22:00,10.0,-11.0,30.20,NNW,328,3.0,12.0,37,0.00,,,0.00,,2013-01-25 03:22:00,
2013-01-24 22:33:00,10.0,-11.0,30.19,NNE,15,2.0,11.0,37,0.00,,,0.00,,2013-01-25 03:33:00,
2013-01-24 22:42:00,10.0,-11.0,30.19,NNE,15,2.0,11.0,37,0.00,,,0.00,,2013-01-25 03:42:00,
2013-01-24 22:53:00,10.0,-10.0,30.19,WNW,294,3.0,10.0,38,0.00,,,0.00,,2013-01-25 03:53:00,
2013-01-24 23:02:00,10.0,-10.0,30.19,NW,326,3.0,11.0,38,0.00,,,0.00,,2013-01-25 04:02:00,
2013-01-24 23:12:00,10.0,-10.0,30.19,NW,326,3.0,11.0,38,0.00,,,0.00,,2013-01-25 04:12:00,
2013-01-24 23:22:00,9.0,-10.0,30.20,WNW,298,4.0,10.0,40,0.00,,,0.00,,2013-01-25 04:22:00,
2013-01-24 23:32:00,9.0,-10.0,30.21,NW,326,3.0,11.0,40,0.00,,,0.00,,2013-01-25 04:32:00,
2013-01-24 23:42:00,9.0,-10.0,30.21,NW,326,3.0,11.0,40,0.00,,,0.00,,2013-01-25 04:42:00,
2013-01-24 23:52:00,9.0,-10.0,30.24,ENE,78,4.0,9.0,40,0.00,,,0.00,,2013-01-25 04:52:00,